Hai Hua — XUDB9 — position and weather

sailwx.info

Track history (hours):
 
Tides and Currents Weather Stations Pressure Air Temp Water Temp Dewpoint Dewpoint Depression Visibility Wind Speed Wind Dir Waves Ship Positions

Hai Hua

Last reported at 2014-Sep-20 17:30 UTC. Time now 2014-Sep-20 18:05 UTC.
Position N 40°21' E 122°01'.

Length 69 m; draft 3.5 m.

Type: Cargo ship. MMSI: 515171000.

Date/timePositionNaut miles runAvg speedWind from/ knotsBaromVisibWave heightAir tempDewpointWater temp
2014-Sep-20 17:30N 40°21' E 122°01'0 0.0
2014-Sep-20 16:30N 40°21' E 122°01'0 0.0
2014-Sep-20 15:24N 40°21' E 122°01'0 0.0
2014-Sep-20 14:30N 40°21' E 122°01'0 0.0
2014-Sep-20 13:24N 40°21' E 122°00'0 0.0
2014-Sep-20 12:24N 40°21' E 122°01'0 0.0
2014-Sep-20 11:24N 40°21' E 122°01'0 0.1
2014-Sep-20 10:30N 40°21' E 122°00'0 0.0
2014-Sep-20 09:24N 40°21' E 122°00'0 0.0
2014-Sep-20 08:24N 40°21' E 122°00'2 2.1
2014-Sep-20 07:32N 40°20' E 121°58'112 8.0
2014-Sep-19 17:26N 38°32' E 121°23'11 9.4
2014-Sep-19 16:19N 38°33' E 121°36'6 8.0
2014-Sep-19 15:33N 38°38' E 121°41'10 9.9
2014-Sep-19 14:33N 38°48' E 121°43'9 7.7
2014-Sep-19 13:19N 38°57' E 121°42'4 1.0
2014-Sep-19 09:12N 38°56' E 121°36'0 0.1
2014-Sep-19 08:24N 38°56' E 121°37'0 0.1
2014-Sep-19 07:30N 38°56' E 121°36'0 0.0
2014-Sep-19 00:06N 38°56' E 121°36'0 0.0
2014-Sep-18 22:06N 38°56' E 121°36'0 0.0
2014-Sep-18 21:24N 38°56' E 121°36'0 0.0
2014-Sep-18 20:30N 38°56' E 121°36'1 0.2
2014-Sep-18 14:33N 38°57' E 121°37'8 7.7
2014-Sep-18 13:30N 38°54' E 121°47'9 9.3
2014-Sep-18 12:33N 38°46' E 121°52'  
Track history (hours):
 
Tides and Currents Weather Stations Pressure Air Temp Water Temp Dewpoint Dewpoint Depression Visibility Wind Speed Wind Dir Waves Ship Positions

Hai Hua

Last reported at 2014-Sep-20 17:30 UTC. Time now 2014-Sep-20 18:05 UTC.
Position N 40°21' E 122°01'.

Length 69 m; draft 3.5 m.

Type: Cargo ship. MMSI: 515171000.

Date/timePositionNaut miles runAvg speedWind from/ knotsBaromVisibWave heightAir tempDewpointWater temp
2014-Sep-20 17:30N 40°21' E 122°01'0 0.0
2014-Sep-20 16:30N 40°21' E 122°01'0 0.0
2014-Sep-20 15:24N 40°21' E 122°01'0 0.0
2014-Sep-20 14:30N 40°21' E 122°01'0 0.0
2014-Sep-20 13:24N 40°21' E 122°00'0 0.0
2014-Sep-20 12:24N 40°21' E 122°01'0 0.0
2014-Sep-20 11:24N 40°21' E 122°01'0 0.1
2014-Sep-20 10:30N 40°21' E 122°00'0 0.0
2014-Sep-20 09:24N 40°21' E 122°00'0 0.0
2014-Sep-20 08:24N 40°21' E 122°00'2 2.1
2014-Sep-20 07:32N 40°20' E 121°58'112 8.0
2014-Sep-19 17:26N 38°32' E 121°23'11 9.4
2014-Sep-19 16:19N 38°33' E 121°36'6 8.0
2014-Sep-19 15:33N 38°38' E 121°41'10 9.9
2014-Sep-19 14:33N 38°48' E 121°43'9 7.7
2014-Sep-19 13:19N 38°57' E 121°42'4 1.0
2014-Sep-19 09:12N 38°56' E 121°36'0 0.1
2014-Sep-19 08:24N 38°56' E 121°37'0 0.1
2014-Sep-19 07:30N 38°56' E 121°36'0 0.0
2014-Sep-19 00:06N 38°56' E 121°36'0 0.0
2014-Sep-18 22:06N 38°56' E 121°36'0 0.0
2014-Sep-18 21:24N 38°56' E 121°36'0 0.0
2014-Sep-18 20:30N 38°56' E 121°36'1 0.2
2014-Sep-18 14:33N 38°57' E 121°37'8 7.7
2014-Sep-18 13:30N 38°54' E 121°47'9 9.3
2014-Sep-18 12:33N 38°46' E 121°52'  

Dump ship's entire track history